Stations météo

réclame
Mon MeteoGroup
Exeter Airport No. 2, Grande-Bretagne (3844): Température de l'air & dewpoint: 13.07.2018 20:00:00 - 19.07.2018 20:00:00 (BST)Exeter Airport No. 2, Grande-Bretagne (3844): Vitesse du vent: 13.07.2018 20:00:00 - 19.07.2018 20:00:00 (BST)Exeter Airport No. 2, Grande-Bretagne (3844): Direction du vent: 13.07.2018 20:00:00 - 19.07.2018 20:00:00 (BST)Exeter Airport No. 2, Grande-Bretagne (3844): reduced air pressure: 13.07.2018 20:00:00 - 19.07.2018 20:00:00 (BST)Exeter Airport No. 2, Grande-Bretagne (3844): visibility: 13.07.2018 20:00:00 - 19.07.2018 20:00:00 (BST)Exeter Airport No. 2, Grande-Bretagne (3844): Ensoleillement: 13.07.2018 20:00:00 - 19.07.2018 20:00:00 (BST)Exeter Airport No. 2, Grande-Bretagne (3844): Quantités de précipitations: 13.07.2018 20:00:00 - 19.07.2018 20:00:00 (BST)
Date & Time tt [°C] td [°C] ff [km/h] ff [knt] dd ppp [hPa] vv [km] sd [min] rr [mm]
19.07.2018 20:00:00 - - - - - - - - 0,0
19.07.2018 19:00:00 23,7 10,4 18 10 WNW 1016,9 40 0 0,0
19.07.2018 18:00:00 24,3 9,0 13 7 SSW 1017,0 50 0 0,0
19.07.2018 17:00:00 25,1 10,2 16 9 SSW 1017,1 50 0 0,0
19.07.2018 16:00:00 25,5 10,0 9 5 SW 1017,4 50 48 0,0
19.07.2018 15:00:00 23,7 9,1 8 4 ESE 1017,7 45 54 0,0
19.07.2018 14:00:00 23,2 9,7 8 4 WSW 1018,2 - 60 0,0
19.07.2018 13:00:00 23,7 9,9 5 3 WNW 1018,7 40 - 0,0
19.07.2018 12:00:00 - - 4 2 N - - - 0,0
19.07.2018 11:00:00 20,8 11,7 5 3 NNW 1019,3 30 60 0,0
19.07.2018 10:00:00 18,9 12,2 5 3 N 1019,5 40 60 0,0
19.07.2018 09:00:00 15,0 11,4 5 3 NNW 1019,7 30 24 0,0
19.07.2018 08:00:00 12,6 11,3 4 2 NNE 1019,8 22 0 0,0
19.07.2018 07:00:00 11,0 10,7 4 2 ENE 1019,8 11 0 0,0
19.07.2018 06:00:00 10,0 9,7 4 2 N 1019,8 12 0 0,0
19.07.2018 05:00:00 9,5 9,0 2 1 ENE 1019,7 13 0 0,0
19.07.2018 04:00:00 10,1 9,4 2 1 NE 1019,9 18 0 0,0
19.07.2018 03:00:00 10,1 9,4 4 2 ENE 1019,9 18 0 0,0
19.07.2018 02:00:00 10,3 9,4 2 1 N 1020,0 15 0 0,0
19.07.2018 01:00:00 10,9 9,4 2 1 N 1019,8 18 - 0,0
19.07.2018 00:00:00 12,2 10,1 4 2 N 1019,7 23 0 0,0
18.07.2018 23:00:00 14,3 11,1 0 0 N 1019,5 28 0 0,0
18.07.2018 22:00:00 17,5 13,2 4 2 NW 1019,3 26 0 0,0
18.07.2018 21:00:00 19,0 13,1 2 1 WNW 1018,9 30 0 0,0
18.07.2018 20:00:00 19,2 13,2 2 1 SE 1018,9 35 0 0,0
18.07.2018 19:00:00 19,0 13,2 8 4 S 1018,7 35 0 0,0
18.07.2018 18:00:00 19,0 13,7 9 5 SSW 1018,7 30 0 0,0
18.07.2018 17:00:00 19,9 12,8 11 6 S 1018,6 40 0 0,0
18.07.2018 16:00:00 20,4 12,1 13 7 SSW 1018,6 40 0 0,0
18.07.2018 15:00:00 20,7 12,6 13 7 S 1018,5 45 0 0,0
18.07.2018 14:00:00 20,6 13,2 8 4 S 1018,4 40 0 0,0
18.07.2018 13:00:00 19,9 13,3 9 5 S 1018,4 35 0 0,0
18.07.2018 12:00:00 19,2 13,9 16 9 SSW 1018,5 40 0 0,0
18.07.2018 11:00:00 19,2 13,6 9 5 S 1018,5 40 0 0,0
18.07.2018 10:00:00 18,8 14,0 9 5 SW 1018,5 35 0 0,0
18.07.2018 09:00:00 18,5 13,8 8 4 S 1018,4 40 0 0,0
18.07.2018 08:00:00 17,3 14,1 2 1 SW 1018,2 30 0 0,0
18.07.2018 07:00:00 15,1 13,9 2 1 S 1017,8 29 0 0,0
18.07.2018 06:00:00 13,6 12,5 0 0 N 1017,8 28 0 0,0
18.07.2018 05:00:00 13,7 12,3 2 1 NNE 1017,5 28 0 0,0
18.07.2018 04:00:00 14,7 12,8 2 1 E 1017,5 30 0 0,0
18.07.2018 03:00:00 14,6 12,6 0 0 N 1017,7 29 0 0,0
18.07.2018 02:00:00 14,4 12,5 4 2 SE 1017,7 30 0 0,0
18.07.2018 01:00:00 15,7 12,6 4 2 NE 1017,7 30 - 0,0
18.07.2018 00:00:00 16,0 12,6 4 2 ENE 1017,8 35 0 0,0
17.07.2018 23:00:00 17,0 12,4 4 2 SSW 1017,7 30 0 0,0
17.07.2018 22:00:00 17,9 12,4 9 5 SW 1017,5 40 0 0,0
17.07.2018 21:00:00 18,4 12,4 15 8 SW 1017,2 40 0 0,0
17.07.2018 20:00:00 19,3 12,1 22 12 WSW 1017,0 45 0 0,0
17.07.2018 19:00:00 20,2 11,1 13 7 W 1016,6 50 0 0,0
17.07.2018 18:00:00 20,2 12,0 22 12 WSW 1016,7 50 0 0,0
17.07.2018 17:00:00 20,6 10,7 11 6 WSW 1016,7 50 0 0,0
17.07.2018 16:00:00 19,1 11,2 9 5 WNW 1016,9 40 0 0,0
17.07.2018 15:00:00 19,8 11,0 11 6 W 1017,0 45 0 0,0
17.07.2018 14:00:00 19,7 10,7 13 7 W 1017,0 50 0 0,0
17.07.2018 13:00:00 19,8 11,5 9 5 WNW 1017,1 50 0 0,0
17.07.2018 12:00:00 20,4 12,1 8 4 WNW 1017,0 50 0 0,0
17.07.2018 11:00:00 19,7 11,1 15 8 W 1017,0 45 6 0,0
17.07.2018 10:00:00 19,3 10,7 21 11 W 1016,9 50 12 0,0
17.07.2018 09:00:00 18,3 10,7 18 10 W 1016,6 50 0 0,0
17.07.2018 08:00:00 17,2 11,8 8 4 WNW 1016,7 5 42 0,0
17.07.2018 07:00:00 15,1 12,8 2 1 E 1016,5 35 24 0,0
17.07.2018 06:00:00 14,0 12,1 5 3 NNW 1016,2 14 0 0,0
17.07.2018 05:00:00 13,4 11,8 2 1 E 1016,0 30 0 0,0
17.07.2018 04:00:00 12,9 11,6 4 2 ESE 1016,2 29 0 0,0
17.07.2018 03:00:00 11,5 10,1 4 2 S 1016,3 1,9 0 0,0
17.07.2018 02:00:00 9,7 8,3 4 2 NNE 1016,3 25 0 0,0
17.07.2018 01:00:00 11,4 8,7 2 1 WSW 1016,5 30 - 0,0
17.07.2018 00:00:00 13,2 10,1 5 3 SSW 1016,4 29 0 0,0
16.07.2018 23:00:00 14,1 10,0 5 3 W 1016,3 24 0 0,0
16.07.2018 22:00:00 14,8 9,9 4 2 WNW 1016,0 30 6 0,0
16.07.2018 21:00:00 17,0 9,8 11 6 NW 1015,4 40 54 0,0
16.07.2018 20:00:00 19,3 9,7 18 10 WNW 1014,9 45 54 0,0
16.07.2018 19:00:00 21,2 8,7 24 13 W 1014,3 50 48 0,0
16.07.2018 18:00:00 22,6 9,7 18 10 WNW 1013,8 50 6 0,0
16.07.2018 17:00:00 21,5 12,5 21 11 WNW 1014,0 50 6 0,0
16.07.2018 16:00:00 21,2 14,2 13 7 W 1014,0 50 0 0,0
16.07.2018 15:00:00 20,6 15,8 15 8 WNW 1014,0 28 0 0,0
16.07.2018 14:00:00 22,8 15,7 21 11 S 1013,7 30 12 0,0
16.07.2018 13:00:00 22,8 16,6 21 11 SE 1013,7 28 48 0,0
16.07.2018 12:00:00 22,9 16,2 15 8 SSE 1013,8 15 48 0,0
16.07.2018 11:00:00 22,0 15,3 9 5 S 1014,1 25 24 0,0
16.07.2018 10:00:00 20,5 14,7 11 6 SSW 1014,1 22 18 0,0
16.07.2018 09:00:00 17,5 13,9 2 1 ENE 1014,3 23 0 0,0
16.07.2018 08:00:00 15,6 13,3 2 1 NE 1014,6 25 0 0,0
16.07.2018 07:00:00 14,4 13,0 4 2 E 1014,4 18 0 0,0
16.07.2018 06:00:00 13,6 12,4 4 2 NNW 1014,7 17 0 0,0
16.07.2018 05:00:00 13,4 12,0 2 1 NW 1014,5 19 0 0,0
16.07.2018 04:00:00 13,2 12,2 5 3 ENE 1014,9 21 0 0,0
16.07.2018 03:00:00 13,1 11,3 0 0 N 1015,4 21 0 0,0
16.07.2018 02:00:00 13,3 11,6 2 1 ENE 1015,5 24 0 0,0
16.07.2018 01:00:00 14,5 12,2 4 2 ESE 1015,7 28 - 0,0
16.07.2018 00:00:00 15,6 11,6 0 0 N 1015,6 30 0 0,0
15.07.2018 23:00:00 18,7 12,7 5 3 NW 1015,7 35 0 0,0
15.07.2018 22:00:00 20,0 12,7 4 2 N 1015,6 35 0 0,0
15.07.2018 21:00:00 22,0 13,8 13 7 NW 1015,0 40 30 0,0
15.07.2018 20:00:00 22,9 14,0 11 6 S 1014,5 40 30 0,0
15.07.2018 19:00:00 24,3 13,7 18 10 S 1014,3 45 48 0,0
15.07.2018 18:00:00 24,5 13,3 15 8 SSE 1014,7 50 54 0,0
15.07.2018 17:00:00 24,7 13,4 18 10 SSE 1015,3 50 48 0,0
15.07.2018 16:00:00 24,4 12,7 21 11 SSE 1015,7 50 60 0,0
15.07.2018 15:00:00 24,8 13,3 16 9 S 1015,8 45 60 0,0
15.07.2018 14:00:00 23,9 12,8 18 10 S 1016,2 50 60 0,0
15.07.2018 13:00:00 25,2 13,6 11 6 SSW 1016,5 50 60 0,0
15.07.2018 12:00:00 23,1 12,0 9 5 SW 1017,1 2,8 60 0,0
15.07.2018 11:00:00 22,5 11,8 5 3 WSW 1017,1 40 60 0,0
15.07.2018 10:00:00 21,1 13,0 4 2 SE 1017,4 50 60 0,0
15.07.2018 09:00:00 17,9 14,5 4 2 N 1017,8 29 60 0,0
15.07.2018 08:00:00 15,2 13,5 4 2 NNW 1018,1 23 60 0,0
15.07.2018 07:00:00 11,9 11,5 2 1 ENE 1018,4 18 48 0,0
15.07.2018 06:00:00 9,6 9,4 2 1 E 1018,0 5 0 0,0
15.07.2018 05:00:00 9,8 9,6 2 1 E 1018,1 6 0 0,0
15.07.2018 04:00:00 10,2 9,7 2 1 ENE 1018,4 10 0 0,0
15.07.2018 03:00:00 10,8 10,3 2 1 NNE 1018,5 15 0 0,0
15.07.2018 02:00:00 11,1 9,8 4 2 N 1018,7 18 0 0,0
15.07.2018 01:00:00 12,0 10,3 2 1 N 1018,9 23 - 0,0
15.07.2018 00:00:00 15,7 12,7 5 3 NW 1019,0 30 0 0,0
14.07.2018 23:00:00 16,2 12,1 8 4 WNW 1019,1 30 0 0,0
14.07.2018 22:00:00 18,2 11,6 5 3 NW 1019,0 30 6 0,0
14.07.2018 21:00:00 20,5 12,4 11 6 NW 1018,8 28 30 0,0
14.07.2018 20:00:00 21,9 15,1 5 3 E 1018,7 35 6 0,0
14.07.2018 19:00:00 22,3 14,3 11 6 S 1018,5 35 0 0,0
14.07.2018 18:00:00 22,2 13,2 13 7 S 1018,8 35 24 0,0
14.07.2018 17:00:00 23,3 12,9 18 10 S 1018,8 40 60 0,0
14.07.2018 16:00:00 25,1 13,0 15 8 SW 1019,0 50 60 0,0
14.07.2018 15:00:00 24,7 11,0 15 8 SW 1019,3 50 54 0,0
14.07.2018 14:00:00 23,5 11,0 9 5 W 1019,8 45 24 0,0
14.07.2018 13:00:00 22,4 11,2 9 5 NNW 1020,2 45 48 0,0
14.07.2018 12:00:00 22,3 11,4 8 4 NNW 1020,6 16 54 0,0
14.07.2018 11:00:00 21,3 11,4 5 3 NNE 1021,1 40 60 0,0
14.07.2018 10:00:00 19,6 13,3 5 3 W 1021,2 7 60 0,0
14.07.2018 09:00:00 16,8 12,9 4 2 WNW 1021,4 3,6 60 0,0
14.07.2018 08:00:00 14,8 13,1 4 2 NNW 1021,4 16 60 0,0
14.07.2018 07:00:00 13,1 12,7 2 1 NNE 1021,4 8 48 0,0
14.07.2018 06:00:00 10,6 10,0 4 2 N 1021,3 5 0 0,0
14.07.2018 05:00:00 10,4 9,8 4 2 NE 1021,5 5 0 0,0
14.07.2018 04:00:00 11,5 10,9 2 1 NNW 1021,8 9 0 0,0
14.07.2018 03:00:00 11,6 10,9 0 0 N 1021,7 10 0 0,0
14.07.2018 02:00:00 11,4 9,9 4 2 NW 1021,9 12 0 0,0
14.07.2018 01:00:00 12,0 9,9 2 1 NE 1022,1 11 - 0,0
14.07.2018 00:00:00 14,6 11,8 5 3 NW 1022,3 20 0 0,0
13.07.2018 23:00:00 15,0 11,3 5 3 WNW 1022,2 22 0 0,0
13.07.2018 22:00:00 16,9 11,5 8 4 NNW 1022,0 23 0 0,0
13.07.2018 21:00:00 18,8 11,4 11 6 NW 1021,3 35 42 0,0
13.07.2018 20:00:00 21,3 15,1 8 4 SE 1020,8 28 12 0,0

tt = Température de l'air
td = dewpoint
ff = Vitesse du vent
dd = Direction du vent
ppp = reduced air pressure
vv = visibility
sd = Ensoleillement
rr = Quantités de précipitations

stations d'obs. à proximité